sat.trackr.live / text

‹ back to catalog

STARLINK-2407

NORAD 47822 · 2021-018AM

PAYLOAD ACTIVE UNKNOWN

§ Identity

Operator
Country
US
Launch date
2021-03-11
Launch site
AFETR
Launch vehicle
Mass (kg)
RCS (m²)

Purposes: comms

External: N2YO · Heavens-Above · Gunter

§ Orbital elements

Epoch: 2026-05-25T01:09:18.660096Z

Period
94.01 min
Inclination
53.1598°
Eccentricity
0.0001108
Mean motion
15.31708030 rev/d
Perigee alt
470.0 km
Apogee alt
471.5 km
Semi-major
6,848.9 km
B*
7.8354e-5
RAAN
260.1416°
Arg perigee
96.0374°
Mean anomaly
264.0754°
Rev number
28,825

§ Raw data

STARLINK-24071 47822U 21018AM  26145.04813264  .00002068  00000+0  78354-4 0  99972 47822  53.1598 260.1416 0001108  96.0374 264.0754 15.31708030288256

JSON: /api/v1/satellites/47822 · /tle

For live sub-satellite position, see the globe view (requires WebGL).

§ Visibility from observer

Set your observer location to see the next 7 days of passes ≥ 10°. The values pass through the URL so the page stays shareable.

No JS? Fill the form by hand. The geolocation button needs JavaScript.